CZ-3A DEB, 35557

Orbit data source: Space-Track

CZ-3A DEB, 35557 is space debris in HEO originally from a launch on Fri, 02 Feb 2007 UTC launched from the Xichang Space Center, China (XSC). Debris objects in space refer to the collection of defunct objects orbiting the Earth. Examples of debris include non-operational satellites, rocket bodies, and fragments generated from explosions, collisions, or faulty payload assembly.

Loading next visibility...
Identifier
35557, 2007-003R
Orbit
HEO
Country
Flag of CNCN / PRC
Related business
Manufacturer
Unknown
Mission
Spacecraft
Bus & Motor
Unknown
Mass
Unknown
Launch date (UTC)
2007-02-02 (19 years ago)
Launch vehicle
Unknown
Launch site
Xichang Space Center, China (XSC)
Object type
Payload
Rocket body
Debris
Shape & HBR
Unknown shape, 0.3 m
Radar Cross Section
Medium (>0.1 m² and <1 m²)

Expand to show TLE details & history
Last TLE update: 3 days ago

TLE from 3 days ago
0 CZ-3A DEB
1 35557U 07003R   25292.02174284  .00018282  00000-0  21945-1 0  9996
2 35557  23.0109 234.1423 6438398  61.8806 347.9151  3.31542074 14410
Epoch: 2025-10-19T00:31Z
TLE epoch observation values (Epoch: 2025-10-19T00:31:18.581Z)
Latitude
0.00002°
Longitude
-161.46496°
Altitude
2,166.423 km
Speed
8.504 km/s
True Right ascension
15h 36m 25s
True Declination
0° 00' 00"
Sunlit
Object was in daylight at epoch
Visualization orbit readout
Latitude
Unknown
Longitude
Unknown
Altitude
Unknown
Speed
Unknown
Apparent Right ascension
Unknown
Apparent Declination
Unknown
Sunlit
N/A
Visualization observer readout
Local Sidereal Time
13:41:45
Azimuth
Unknown
Elevation
Unknown
Doppler factor
Unknown
Orbital elements
Apogee altitude
24,858.218 km
Perigee altitude
389.643 km
Semi-major axis
19,002.068 km
Eccentricity
0.64384
Inclination
23.0109°
RAAN
234.1423°
Arg. of periapsis
61.8806°
True anomaly
298.10721°
Mean anomaly
347.9151°
Eccentric anomaly
328.81212°
Mean motion
0.82859 °/min
Orbital period
434.47 mins
BSTAR
0.021945
Loading maneuver chart data...
Computing Atmospheric mass density...
Loading historical data...
Loading historical data...
Loading historical data...
Loading historical data...
Loading historical data...
Loading historical data...
Loading historical data...

Documentation

Showing up to 5 results
|